Weather History for Newport Airport, OR

Change the Weather History Date:

Tuesday, November 12, 2013

  Actual Average Record
Temperature  
Mean Temperature 52 °F -  
Max Temperature 55 °F 53 °F 64 °F (2001)
Min Temperature 50 °F 44 °F 33 °F (1996)
Degree Days  
Heating Degree Days 12    
Growing Degree Days 2 (Base 50)    
Moisture  
Dew Point 52 °F    
Average Humidity 97    
Maximum Humidity 100    
Minimum Humidity 88    
Precipitation  
Precipitation 0.24 in - - ()
Sea Level Pressure  
Sea Level Pressure 30.30 in    
Wind  
Wind Speed 9 mph (South)    
Max Wind Speed 18 mph    
Max Gust Speed 26 mph    
Visibility 5 miles    
Events Fog , Rain    
Averages and records for this station are not official NWS values.
T = Trace of Precipitation, MM = Missing Value Source: NWS Daily Summary

Daily Weather History Graph

Daily Weather History Graph

Search for Another Location

Airport:

Trip Planner

Search our weather history database for the weather conditions in past years. The results will help you decide how hot, cold, wet, or windy it might be!

Date:

Astronomy

Nov. 12, 2013 Rise Set
Actual Time 7:09 AM PST 4:51 PM PST
Civil Twilight 6:37 AM PST 5:22 PM PST
Nautical Twilight 6:02 AM PST 5:57 PM PST
Astronomical Twilight 5:28 AM PST 6:31 PM PST
Moon 2:18 PM PST (11/12) 1:53 AM PST (11/12)
Length of Visible Light 10h 44m
Length of Day
9h 41m
Waxing Gibbous, 77% of the Moon is Illuminated
Nov 12
Waxing Gibbous
Nov 17
Full
Nov 25
Last Quarter
Dec 2
New
Dec 9
First Quarter

Hourly Weather History & Observations

Time (PST) Temp. Dew Point Humidity Pressure Visibility Wind Dir Wind Speed Gust Speed Precip Events Conditions
12:15 AM 53.6 °F 50.0 °F 88% 30.09 in 10.0 mi South 9.2 mph - N/A Rain Light Rain
12:35 AM 53.6 °F 50.0 °F 88% 30.10 in 10.0 mi South 10.4 mph 18.4 mph 0.01 in Rain Light Rain
12:55 AM 53.6 °F 50.0 °F 88% 30.10 in 10.0 mi SE 5.8 mph - 0.01 in Rain Rain
1:15 AM 51.8 °F 48.2 °F 88% 30.10 in 7.0 mi East 10.4 mph - 0.01 in Rain Light Rain
1:35 AM 50.0 °F 48.2 °F 94% 30.11 in 10.0 mi East 8.1 mph - 0.02 in Rain Light Rain
1:55 AM 50.0 °F 48.2 °F 94% 30.10 in 7.0 mi East 5.8 mph - 0.04 in Rain Light Rain
2:15 AM 50.0 °F 48.2 °F 94% - 10.0 mi East 8.1 mph - 0.01 in Rain Rain
2:35 AM 50.0 °F 48.2 °F 94% 30.11 in 7.0 mi East 8.1 mph - 0.03 in Rain Light Rain
2:55 AM 50.0 °F 48.2 °F 94% 30.12 in 10.0 mi East 8.1 mph - 0.03 in Rain Rain
3:15 AM 50.0 °F 50.0 °F 100% 30.13 in 10.0 mi SE 3.5 mph - N/A Rain Light Rain
3:35 AM 51.8 °F 50.0 °F 94% 30.14 in 7.0 mi Calm Calm - 0.02 in Rain Light Rain
3:55 AM 51.8 °F 50.0 °F 94% 30.14 in 5.0 mi SSE 3.5 mph - 0.04 in Rain Rain
4:15 AM 51.8 °F 50.0 °F 94% 30.15 in 5.0 mi SSE 3.5 mph - 0.03 in Rain Light Rain
4:35 AM 50.0 °F 50.0 °F 100% 30.15 in 4.0 mi ESE 4.6 mph - 0.04 in Rain Rain
4:55 AM 50.0 °F 50.0 °F 100% 30.15 in 5.0 mi ESE 5.8 mph - 0.05 in Rain Light Rain
5:15 AM 50.0 °F 50.0 °F 100% 30.16 in 2.5 mi ESE 3.5 mph - 0.01 in   Heavy Drizzle
5:35 AM 51.8 °F 50.0 °F 94% 30.17 in 4.0 mi SE 4.6 mph - 0.04 in   Heavy Drizzle
5:55 AM 51.8 °F 51.8 °F 100% 30.18 in 4.0 mi South 11.5 mph 19.6 mph 0.04 in   Drizzle
6:15 AM 53.6 °F 51.8 °F 94% 30.19 in 3.0 mi South 15.0 mph 23.0 mph 0.01 in Rain Light Rain
6:35 AM 53.6 °F 51.8 °F 94% 30.19 in 2.5 mi South 17.3 mph 21.9 mph 0.01 in   Drizzle
6:55 AM 53.6 °F 51.8 °F 94% 30.21 in 3.0 mi South 18.4 mph 26.5 mph 0.02 in Rain Light Rain
7:15 AM 53.6 °F 51.8 °F 94% 30.21 in 3.0 mi South 15.0 mph - N/A Rain Rain
7:35 AM 53.6 °F 51.8 °F 94% 30.23 in 3.0 mi SSW 18.4 mph 24.2 mph N/A Rain Light Rain
7:55 AM 53.6 °F 51.8 °F 94% 30.24 in 2.0 mi South 17.3 mph 26.5 mph N/A Rain Rain
8:15 AM 53.6 °F 51.8 °F 94% 30.25 in 3.0 mi South 18.4 mph 24.2 mph N/A   Overcast
8:35 AM 53.6 °F 51.8 °F 94% 30.26 in 2.5 mi South 16.1 mph 23.0 mph N/A   Overcast
8:55 AM 53.6 °F 51.8 °F 94% 30.27 in 2.5 mi South 16.1 mph 25.3 mph N/A Rain Light Rain
9:15 AM 53.6 °F 53.6 °F 100% 30.28 in 2.0 mi South 15.0 mph 24.2 mph 0.01 in   Overcast
9:35 AM 53.6 °F 53.6 °F 100% 30.29 in 3.0 mi South 16.1 mph 19.6 mph 0.01 in   Overcast
9:55 AM 53.6 °F 53.6 °F 100% 30.31 in 2.0 mi South 16.1 mph 21.9 mph 0.01 in   Overcast
10:15 AM 53.6 °F 53.6 °F 100% 30.32 in 2.0 mi South 13.8 mph 21.9 mph N/A   Overcast
10:35 AM 53.6 °F 53.6 °F 100% 30.32 in 1.5 mi South 13.8 mph 21.9 mph N/A   Overcast
10:55 AM 53.6 °F 53.6 °F 100% 30.32 in 1.2 mi South 12.7 mph 18.4 mph N/A   Overcast
11:15 AM 53.6 °F 53.6 °F 100% - 1.2 mi South 11.5 mph 16.1 mph N/A   Overcast
11:35 AM 53.6 °F 53.6 °F 100% 30.33 in 1.0 mi South 13.8 mph 20.7 mph N/A   Overcast
11:55 AM 53.6 °F 53.6 °F 100% 30.33 in 1.8 mi South 12.7 mph - N/A   Overcast
12:15 PM 53.6 °F 53.6 °F 100% 30.33 in 2.5 mi South 13.8 mph 17.3 mph N/A   Overcast
12:35 PM 53.6 °F 53.6 °F 100% 30.34 in 4.0 mi SSW 13.8 mph 19.6 mph N/A   Overcast
12:55 PM 55.4 °F 55.4 °F 100% 30.34 in 7.0 mi SSW 13.8 mph 18.4 mph N/A   Overcast
1:15 PM 53.6 °F 53.6 °F 100% 30.34 in 7.0 mi SSW 11.5 mph - N/A   Overcast
1:35 PM 53.6 °F 53.6 °F 100% 30.34 in 7.0 mi SSW 12.7 mph - N/A   Overcast
1:55 PM 55.4 °F 53.6 °F 94% 30.34 in 5.0 mi SSW 12.7 mph 17.3 mph N/A   Mostly Cloudy
2:15 PM 55.4 °F 53.6 °F 94% 30.34 in 5.0 mi SSW 11.5 mph - N/A   Overcast
2:35 PM 55.4 °F 53.6 °F 94% 30.35 in 7.0 mi SSW 12.7 mph - N/A   Overcast
2:55 PM 55.4 °F 53.6 °F 94% 30.35 in 7.0 mi SSW 11.5 mph - N/A   Overcast
3:15 PM 53.6 °F 53.6 °F 100% 30.36 in 7.0 mi SSW 11.5 mph - N/A   Overcast
3:35 PM 53.6 °F 53.6 °F 100% 30.36 in 10.0 mi SSW 10.4 mph - N/A   Scattered Clouds
3:55 PM 53.6 °F 51.8 °F 94% 30.36 in 10.0 mi SSW 10.4 mph - N/A   Clear
4:15 PM 53.6 °F 51.8 °F 94% 30.37 in 4.0 mi SSW 9.2 mph - N/A   Scattered Clouds
4:35 PM 53.6 °F 51.8 °F 94% 30.37 in 7.0 mi SSW 6.9 mph - N/A   Overcast
4:55 PM 53.6 °F 51.8 °F 94% 30.37 in 7.0 mi SSW 6.9 mph - N/A   Overcast
5:15 PM 53.6 °F 51.8 °F 94% 30.37 in 5.0 mi South 5.8 mph - N/A   Overcast
5:35 PM 53.6 °F 51.8 °F 94% 30.38 in 10.0 mi South 5.8 mph - N/A   Overcast
5:55 PM 53.6 °F 51.8 °F 94% 30.39 in 10.0 mi South 4.6 mph - N/A   Overcast
6:15 PM 51.8 °F 51.8 °F 100% 30.39 in 10.0 mi South 3.5 mph - N/A   Overcast
6:35 PM 51.8 °F 51.8 °F 100% 30.40 in 10.0 mi SSW 4.6 mph - N/A   Overcast
6:55 PM 51.8 °F 51.8 °F 100% 30.40 in 7.0 mi Calm Calm - N/A   Overcast
7:15 PM 51.8 °F 51.8 °F 100% 30.41 in 2.5 mi Calm Calm - N/A   Overcast
7:35 PM 51.8 °F 51.8 °F 100% 30.41 in 2.5 mi Calm Calm - N/A   Overcast
7:55 PM 51.8 °F 51.8 °F 100% 30.42 in 7.0 mi South 3.5 mph - N/A   Overcast
8:15 PM 51.8 °F 51.8 °F 100% 30.42 in 10.0 mi Calm Calm - N/A   Overcast
8:35 PM 51.8 °F 51.8 °F 100% 30.42 in 10.0 mi Calm Calm - N/A   Overcast
8:55 PM 51.8 °F 51.8 °F 100% 30.43 in 10.0 mi Calm Calm - N/A   Overcast
9:15 PM 51.8 °F 51.8 °F 100% 30.44 in 10.0 mi Calm Calm - N/A   Overcast
9:35 PM 51.8 °F 51.8 °F 100% 30.45 in 1.8 mi Calm Calm - N/A   Overcast
9:55 PM 51.8 °F 51.8 °F 100% 30.45 in 1.0 mi SSW 3.5 mph - N/A   Overcast
10:15 PM 51.8 °F 51.8 °F 100% 30.45 in 0.5 mi Calm Calm - N/A Fog Fog
10:35 PM 51.8 °F 51.8 °F 100% 30.45 in 1.0 mi Calm Calm - N/A   Overcast
10:55 PM 51.8 °F 51.8 °F 100% 30.46 in 5.0 mi Calm Calm - N/A   Overcast
11:15 PM 51.8 °F 51.8 °F 100% - 5.0 mi Calm Calm - N/A   Overcast
11:35 PM 51.8 °F 51.8 °F 100% 30.46 in 4.0 mi Calm Calm - N/A   Overcast
11:55 PM 51.8 °F 51.8 °F 100% 30.46 in 5.0 mi Calm Calm - N/A   Overcast